Radiation Dose measured at Intake/Vertical shaft monitor
Date,Time,Intake(cps),Vertical shaft(cps),Rain
2023/11/17,00:00,10.0,4.7,No
2023/11/17,00:10,10.0,4.8,No
2023/11/17,00:20,10.0,4.8,No
2023/11/17,00:30,10.0,4.8,No
2023/11/17,00:40,10.0,4.8,No
2023/11/17,00:50,10.0,4.8,No
2023/11/17,01:00,11.0,4.8,No
2023/11/17,01:10,10.0,4.8,No
2023/11/17,01:20,10.0,4.8,No
2023/11/17,01:30,10.0,4.8,No
2023/11/17,01:40,10.0,4.8,No
2023/11/17,01:50,10.0,4.8,No
2023/11/17,02:00,10.0,4.8,No
2023/11/17,02:10,10.0,4.7,No
2023/11/17,02:20,10.0,4.8,No
2023/11/17,02:30,10.0,4.7,No
2023/11/17,02:40,11.0,4.8,No
2023/11/17,02:50,10.0,4.9,No
2023/11/17,03:00,10.0,4.8,Yes
2023/11/17,03:10,10.0,4.7,Yes
2023/11/17,03:20,10.0,4.8,Yes
2023/11/17,03:30,10.0,4.7,Yes
2023/11/17,03:40,10.0,4.8,Yes
2023/11/17,03:50,10.0,4.8,Yes
2023/11/17,04:00,10.0,4.8,Yes
2023/11/17,04:10,10.0,4.7,Yes
2023/11/17,04:20,10.0,4.8,Yes
2023/11/17,04:30,10.0,4.8,Yes
2023/11/17,04:40,11.0,4.7,Yes
2023/11/17,04:50,10.0,4.8,Yes
2023/11/17,05:00,10.0,4.9,Yes
2023/11/17,05:10,10.0,4.9,Yes
2023/11/17,05:20,11.0,4.8,Yes
2023/11/17,05:30,11.0,4.8,Yes
2023/11/17,05:40,10.0,4.8,Yes
2023/11/17,05:50,10.0,4.8,Yes
2023/11/17,06:00,10.0,4.8,Yes
2023/11/17,06:10,10.0,4.8,Yes
2023/11/17,06:20,10.0,4.9,Yes
2023/11/17,06:30,10.0,5.0,Yes
2023/11/17,06:40,11.0,4.9,Yes
2023/11/17,06:50,10.0,4.9,Yes
2023/11/17,07:00,10.0,5.0,Yes
2023/11/17,07:10,10.0,5.0,Yes
2023/11/17,07:20,11.0,5.0,Yes
2023/11/17,07:30,11.0,4.9,Yes
2023/11/17,07:40,10.0,5.2,Yes
2023/11/17,07:50,11.0,5.2,Yes
2023/11/17,08:00,11.0,5.2,Yes
2023/11/17,08:10,11.0,5.2,Yes
2023/11/17,08:20,11.0,5.1,Yes
2023/11/17,08:30,11.0,5.2,Yes
2023/11/17,08:40,11.0,5.4,Yes
2023/11/17,08:50,11.0,5.4,Yes
2023/11/17,09:00,12.0,5.5,Yes
2023/11/17,09:10,12.0,5.7,Yes
2023/11/17,09:20,12.0,5.6,Yes
2023/11/17,09:30,12.0,5.6,Yes
2023/11/17,09:40,12.0,5.6,Yes
2023/11/17,09:50,12.0,5.6,Yes
2023/11/17,10:00,12.0,5.6,Yes
2023/11/17,10:10,12.0,5.5,Yes
2023/11/17,10:20,12.0,5.6,Yes
2023/11/17,10:30,12.0,5.6,Yes
2023/11/17,10:40,12.0,5.5,Yes
2023/11/17,10:50,12.0,5.3,Yes
2023/11/17,11:00,12.0,5.5,Yes
2023/11/17,11:10,12.0,5.6,Yes
2023/11/17,11:20,12.0,5.3,Yes
2023/11/17,11:30,12.0,5.5,No
2023/11/17,11:40,12.0,5.5,No
2023/11/17,11:50,12.0,5.4,No
2023/11/17,12:00,12.0,5.2,No
2023/11/17,12:10,12.0,5.2,No
2023/11/17,12:20,11.0,5.1,No
2023/11/17,12:30,11.0,5.0,Yes
2023/11/17,12:40,11.0,5.1,Yes
2023/11/17,12:50,11.0,5.0,Yes
2023/11/17,13:00,11.0,4.9,Yes
2023/11/17,13:10,11.0,4.8,Yes
2023/11/17,13:20,11.0,4.9,Yes
2023/11/17,13:30,11.0,4.9,Yes
2023/11/17,13:40,11.0,4.9,Yes
2023/11/17,13:50,11.0,5.0,Yes
2023/11/17,14:00,11.0,4.9,Yes
2023/11/17,14:10,11.0,5.2,Yes
2023/11/17,14:20,11.0,5.2,Yes
2023/11/17,14:30,11.0,5.3,Yes
2023/11/17,14:40,11.0,5.2,Yes
2023/11/17,14:50,11.0,5.2,Yes
2023/11/17,15:00,11.0,5.2,No
2023/11/17,15:10,12.0,5.2,No
2023/11/17,15:20,11.0,5.1,No
2023/11/17,15:30,12.0,5.0,Yes
2023/11/17,15:40,11.0,4.9,Yes
2023/11/17,15:50,11.0,5.0,Yes
2023/11/17,16:00,11.0,5.1,Yes
2023/11/17,16:10,11.0,4.9,No
2023/11/17,16:20,11.0,5.0,No
2023/11/17,16:30,11.0,5.1,No
2023/11/17,16:40,11.0,5.0,No
2023/11/17,16:50,11.0,5.0,No
2023/11/17,17:00,11.0,5.1,No
2023/11/17,17:10,11.0,5.0,No
2023/11/17,17:20,11.0,4.9,No
2023/11/17,17:30,10.0,4.9,Yes
2023/11/17,17:40,11.0,4.8,No
2023/11/17,17:50,11.0,4.8,No
2023/11/17,18:00,10.0,4.9,No
2023/11/17,18:10,10.0,5.0,No
2023/11/17,18:20,10.0,5.0,No
2023/11/17,18:30,10.0,4.8,No
2023/11/17,18:40,11.0,4.8,No
2023/11/17,18:50,10.0,4.7,No
2023/11/17,19:00,10.0,4.9,No
2023/11/17,19:10,10.0,4.8,No
2023/11/17,19:20,10.0,4.9,No
2023/11/17,19:30,11.0,4.8,No
2023/11/17,19:40,10.0,4.9,No
2023/11/17,19:50,10.0,4.9,No
2023/11/17,20:00,10.0,4.9,No
2023/11/17,20:10,10.0,4.9,No
2023/11/17,20:20,11.0,4.7,No
2023/11/17,20:30,10.0,4.8,No
2023/11/17,20:40,10.0,4.9,No
2023/11/17,20:50,10.0,4.9,No
2023/11/17,21:00,10.0,4.7,No
2023/11/17,21:10,10.0,4.8,No
2023/11/17,21:20,10.0,4.8,No
2023/11/17,21:30,10.0,4.8,No
2023/11/17,21:40,10.0,4.9,No
2023/11/17,21:50,10.0,4.8,No
2023/11/17,22:00,10.0,4.9,No
2023/11/17,22:10,10.0,4.9,No
2023/11/17,22:20,10.0,5.0,No
2023/11/17,22:30,10.0,4.8,No
2023/11/17,22:40,10.0,4.8,No
2023/11/17,22:50,10.0,4.8,No
2023/11/17,23:00,10.0,4.8,No
2023/11/17,23:10,10.0,4.9,No
2023/11/17,23:20,10.0,4.8,No
2023/11/17,23:30,10.0,4.9,No
2023/11/17,23:40,10.0,5.0,No
2023/11/17,23:50,10.0,4.9,No
